Flag for U.S.A. Weather past 2 weeks in Detroit, Michigan, U.S.A.

Now
58 °F

Sunny.


Feels Like: 56 °F
Forecast: 50 / 65 °F
Wind: 8 mph from North

Location: Detroit City Airport

Current Time: Sep 18, 2014 at 10:08:26 AM

Latest Report: Sep 18, 2014 at 8:53 AM


Visibility: 10 mi

Pressure: 30.11 "Hg

Humidity: 75%

Dew point: 50 °F

Location of DetroitLocation

Historic Weather in Detroit — Graph

°F

Detroit temperature yesterday

Maximum temperature yesterday: 70 °F (at 4:53 PM)
Minimum temperature yesterday: 49 °F (at 4:53 AM)
Average temperature yesterday: 59 °F

Past Weeks' High & Low Weather Summary

 TemperatureHumidityPressure
High93 °F (Sep 5, 4:53 PM)97% (Sep 9, 1:53 AM)30.37 "Hg (Sep 9, 1:53 AM)
Low44 °F (Sep 14, 6:53 AM)35% (Sep 17, 4:53 PM)29.60 "Hg (Sep 10, 7:53 PM)
Average65 °F69%30.09 "Hg
* Reported Sep 3 8:53 AM — Sep 18 8:53 AM, Detroit, Weather by CustomWeather, © 2014

Note: Actual official high and low records may vary slightly from our data, if they occured in-between our weather recording intervals... More about our weather records

Advertising

Detroit weather history for previous 24 hours

 ConditionsComfort  
Time TempWeatherWind HumidityBarometerVisibility
8:53 AM
Sep 18
58 °FSunny.8 mph75%30.11 "Hg10 mi
7:53 AM55 °FClear.9 mph80%30.10 "Hg8 mi
6:53 AM53 °FClear.6 mph83%30.08 "Hg10 mi
5:53 AM53 °FClear.5 mph74%30.06 "Hg10 mi
4:53 AM53 °FClear.No wind77%30.05 "Hg10 mi
3:53 AM54 °FClear.3 mph74%30.03 "Hg10 mi
2:53 AM55 °FClear.No wind74%30.03 "Hg10 mi
1:53 AM56 °FClear.3 mph72%30.02 "Hg10 mi
12:53 AM54 °FClear.No wind74%30.02 "Hg10 mi
11:53 PM
Sep 17
56 °FClear.No wind70%30.01 "Hg10 mi
10:53 PM56 °FClear.No wind70%30.01 "Hg10 mi
9:53 PM59 °FClear.No wind64%29.99 "Hg10 mi
8:53 PM63 °FPassing clouds.No wind48%29.99 "Hg10 mi
7:53 PM65 °FPartly sunny.No wind44%29.98 "Hg8 mi
6:53 PM67 °FSunny.5 mph41%29.98 "Hg10 mi
5:53 PM69 °FPassing clouds.7 mph38%29.97 "Hg9 mi
4:53 PM70 °FScattered clouds.8 mph35%29.98 "Hg10 mi
3:53 PM68 °FSunny.8 mph38%29.98 "Hg10 mi
2:53 PM67 °FSunny.7 mph41%29.99 "Hg10 mi
1:53 PM66 °FSunny.6 mph42%30.00 "Hg10 mi
12:53 PM64 °FSunny.6 mph47%30.01 "Hg10 mi
11:53 AM63 °FSunny.N/A47%30.02 "Hg10 mi
10:53 AM59 °FSunny.6 mph51%30.05 "Hg10 mi
Weather by CustomWeather, © 2014

See weather overviewHow to use our weather pages